www.pogodaiklimat.ru

Погода и климат >> Архив погоды >> Россия >> Коми >> Усть-Уса


АРХИВ ПОГОДЫ в Усть-Усе

Время (UTC), дата Ветер
(напр.,м/с)
 
Видим.   Явления Облачность Т
(С)
Тd
(С)
f
(%)
Тe
(С)
Тes
(С)
Комфортность P
(гПа)
Po
(гПа)
Тmin
(С)
Tmax
(С)
R
(мм)
R24
(мм)
S
(см)
03 15.07 С 2 50 км 4/4 1000 м
[Sc]
+14.0 +11.5 85 +13 +16 1011.0 1001.8 +12.6 7
06 15.07 С 3 50 км 4/3 1000 м
[Cu hum Ci fib]
+16.3 +10.2 67 +16 +21 1012.2 1003.0
09 15.07 СЗ 3 50 км 3/3 1000 м
[Cu hum Ci fib]
+18.2 +9.5 57 +19 +25 1012.8 1003.8
12 15.07 СВ 3 50 км 4/3 1000 м
[Cu hum Ci fib]
+18.7 +9.2 54 +19 +23 1012.8 1003.7
15 15.07 СВ 4 50 км 5/0
[Ac trans Cs]
+17.7 +9.0 57 +17 +18 1012.8 1003.7 +19.3
18 15.07 СВ 3 50 км 9/4 1000 м
[Sc Ac trans]
+13.3 +8.8 74 +12 +12 1012.8 1003.6
21 15.07 СВ 4 50 км 9/8 240 м
[Frnb Ac trans]
+10.3 +7.7 84 +8 +8 1011.9 1002.5
00 16.07 СВ 4 50 км 10/10 300 м
[Frnb]
+10.6 +8.5 87 +8 +8 1010.6 1001.3
03 16.07 СВ 4
{10}
20 км слаб. ливневой дождь 10/10 240 м
[Cb calv]
+10.7 +9.7 94 +8 +8 1007.4 998.2 +10.3 2
06 16.07 СВ 5
{10}
50 км {ливн. осадки} 10/10 480 м
[Cb calv]
+14.7 +11.9 83 +13 +13 1004.9 995.8
09 16.07 СВ 5
{11}
50 км 8/3 1000 м
[Sc Ac trans]
+20.7 +15.3 71 +24 +26 комфорт 1001.9 993.0
12 16.07 В 3
{11}
50 км 9/8 300 м
[Frnb Ac trans]
+23.5 +17.9 71 +28 +28 душно 1000.4 991.7
15 16.07 В 3
{11}
50 км 9/5 1000 м
[Sc Ac trans]
+23.7 +17.9 70 +28 +28 душно 999.5 990.8 +24.3 0.0
18 16.07 З 2 20 км гроза, ливневой дождь 10/10 270 м
[Cb cap]
+18.5 +17.8 96 +20 +20 1002.8 993.9
21 16.07 СВ 2 10 км гроза, ливневой дождь 10/10 330 м
[Cb calv]
+17.2 +16.6 96 +18 +18 1002.0 993.1
00 17.07 С 3
{11}
20 км слаб. ливневой дождь {гроза} 9/9 210 м
[Cb calv]
+11.9 +11.4 97 +10 +10 1005.4 996.2
03 17.07 СЗ 4 50 км {ливн. осадки} 10/10 240 м
[Cb calv]
+10.9 +10.3 96 +8 +8 1008.5 999.2 +10.9 25
06 17.07 СЗ 6-10
{11}
50 км {ливн. осадки} 10/10 180 м
[Cb calv]
+10.4 +9.4 94 +7 +7 1010.5 1001.2 +10.4
09 17.07 СЗ 5-10
{10}
20 км слаб. ливневой дождь 10/10 270 м
[Cb calv]
+10.2 +9.1 93 +7 +7 1012.7 1003.3
12 17.07 СЗ 5
{10}
20 км слаб. ливневой дождь 10/10 270 м
[Cb calv]
+11.3 +10.1 92 +9 +9 1014.4 1005.1
15 17.07 СЗ 4 50 км в посл. час ливневой дождь 10/10 400 м
[Cb calv]
+11.4 +10.3 93 +9 +9 1015.5 1006.2 +11.5 4
18 17.07 С 5 50 км слаб. ливневой дождь 10/10 330 м
[Cb calv]
+10.9 +9.5 91 +8 +8 1016.2 1006.8
21 17.07 С 3
{12}
20 км слаб. дождь 10/10 330 м
[Frnb Ns]
+9.5 +8.3 92 +7 +7 1016.5 1007.1
00 18.07 СЗ 3 50 км {ливн. осадки, дождь} 10/10 1080 м
[Sc]
+9.8 +7.9 88 +7 +7 1016.4 1007.0
03 18.07 С 5
{11}
50 км 10/10 1080 м
[Sc]
+9.4 +7.6 89 +6 +6 1015.9 1006.5 +9.3 1
06 18.07 С 6
{11}
20 км слаб. ливневой дождь 10/10 480 м
[Cb calv]
+8.9 +7.7 92 +5 +5 1015.2 1005.8 +8.9
09 18.07 С 5
{12}
20 км слаб. ливневой дождь 10/10 450 м
[Cb calv]
+9.4 +8.0 91 +6 +6 1014.6 1005.2
12 18.07 С 5
{12}
10 км слаб. дождь 10/10 330 м
[Frnb Ns]
+8.6 +7.6 93 +5 +5 1014.1 1004.7
15 18.07 С 5 10 км слаб. дождь 10/10 240 м
[Frnb Ns]
+8.2 +7.5 95 +4 +4 1013.2 1003.8 +9.5 14
18 18.07 С 5
{10}
20 км слаб. морось {дождь} 10/10 120 м
[St]
+8.2 +7.6 96 +4 +4 1012.0 1002.6
21 18.07 С 3 10 км гроза, ливневой дождь 10/10 150 м
[Cb cap]
+8.0 +7.6 97 +5 +5 1010.2 1000.9
00 19.07 С 2 4000 м слаб. морось {гроза} 10/10 120 м
[St]
+8.7 +8.3 97 +7 +7 1009.5 1000.2
03 19.07 СВ 1 1000 м слаб. морось 10/10 90 м
[St]
+9.9 +9.6 98 +9 +9 1008.7 999.4 +8.0 15
06 19.07 ЮЗ 1 50 км {морось} 10/10 180 м
[St]
+11.1 +10.8 98 +11 +11 1008.4 999.2
09 19.07 Ю 1 50 км 10/10 240 м
[Frnb]
+12.6 +11.2 91 +13 +13 1008.8 999.6
12 19.07 Ю 2 50 км 10/10 360 м
[Frnb]
+14.0 +11.8 87 +13 +13 1009.1 999.9
15 19.07 Ю 2 50 км в посл. час ливневой дождь 10/10 240 м
[Cb calv]
+12.9 +11.9 94 +12 +12 1009.2 1000.0 +14.1 1
18 19.07 Ю 2 50 км {ливн. осадки} 10/10 540 м
[Cb calv]
+12.5 +11.8 95 +11 +11 1009.3 1000.1
21 19.07 Ю 2 50 км 10/10 420 м
[Cb calv]
+11.6 +10.7 94 +10 +10 1009.2 1000.0
00 20.07 Ю 2 50 км 10/10 270 м
[Cb calv]
+11.2 +10.4 95 +10 +10 1009.9 1000.6
03 20.07 Ю 3 50 км 10/10 300 м
[Cb calv]
+12.1 +11.0 93 +10 +10 1010.0 1000.8 +11.2 0.0
06 20.07 Ю 3 50 км 10/10 660 м
[Cb calv]
+13.6 +10.6 82 +12 +12 1010.1 1000.9
09 20.07 Ю 3 50 км 10/10 630 м
[Cb calv]
+14.5 +11.5 82 +14 +14 1010.4 1001.2
12 20.07 Ю 1 50 км 9/9 1000 м
[Cb calv]
+16.5 +12.5 77 +17 +18 1010.6 1001.5
15 20.07 В 1 50 км 4/0
[Cs]
+17.9 +13.4 75 +19 +20 1010.2 1001.1 +19.0
18 20.07 СВ 2 50 км 9/9 930 м
[Sc]
+16.3 +13.9 86 +16 +16 1010.5 1001.4
21 20.07 СВ 2 50 км 6/4 300 м
[Frnb Ac trans]
+13.2 +12.6 96 +12 +12 1010.5 1001.3
00 21.07 СЗ 2 50 км 10/0
[Cs]
+12.7 +12.1 96 +12 +12 1011.1 1001.9 +12.7
03 21.07 С 1 50 км 10/0
[Cs]
+14.1 +13.7 97 +14 +16 1011.3 1002.1 +12.7
06 21.07 СЗ 3 50 км 3/1 1000 м
[Cu hum Ci fib]
+18.5 +14.8 79 +19 +26 1011.6 1002.6
09 21.07 СЗ 4 50 км 5/3 1000 м
[Cu hum Cs]
+19.3 +14.6 74 +21 +25 комфорт 1012.1 1003.0
12 21.07 С 5 50 км 6/0
[Cs]
+20.6 +14.0 66 +23 +26 комфорт 1012.3 1003.3
15 21.07 СВ 5 50 км 8/0
[Cs]
+18.7 +12.9 69 +19 +20 1013.1 1004.1 +20.8
18 21.07 С 3 50 км 3/0
[Ci fib]
+14.8 +11.5 81 +14 +14 1013.2 1004.0
21 21.07 СВ 4 50 км 9/9 300 м
[Frnb]
+12.8 +10.5 86 +11 +11 1013.5 1004.2
00 22.07 С 4 50 км 10/10 180 м
[St]
+10.4 +9.1 92 +8 +8 1013.2 1003.9

 

Местоположение метеостанции Усть-Уса (Коми, Россия): широта 65.97 долгота 56.92 высота над уровнем моря 78 м.

В архиве по умолчанию представлена погода в Усть-Усе за последнюю неделю. Архивные данные за месяц целиком и за предыдущие месяцы, начиная с января 2011 года, Вы можете получить, выбрав интересующий диапазон дат из раскрывающегося списка и нажав кнопку "Ввод!".


*Определитесь, кто Вы:
робот инопланетянин человек

Внимание! Время в таблицах - всемирное. Для получения местного времени необходимо прибавить поправку, которая равна 3 ч.

Смотрите также архив погоды в соседних городах и на ближайших метеорологических станциях:

Погода в Усинске (Коми, Россия) (21 км)
Погода в Мутном Материке (Коми, Россия) (79 км)
Погода в Печоре (Коми, Россия) (95 км)
Погода в Харуте (Ненецкий АО, Россия) (152 км)
Погода в Хорей-Вере (Ненецкий АО, Россия) (169 км)
Погода в Ижме (Коми, Россия) (175 км)
Погода в Ираеле (Коми, Россия) (176 км)
Погода в Петруни (Коми, Россия) (180 км)
Погода в Усть-Щугоре (Коми, Россия) (192 км)
Погода в Окуневом Носу (Коми, Россия) (198 км)

Пояснения к столбцам:

Ветер - указаны скорость ветра в м/с - средняя за 10 мин, порывы в срок и между сроками (в фигурных скобках) и направление, откуда дует ветер: С - северный, СВ - северо-восточный, В - восточный, ЮВ - юго-восточный, Ю - южный, ЮЗ - юго-западный, З - западный, СЗ - северо-западный.
Видимость - горизонтальная дальность видимости в метрах или километрах. При видимости от 1 до 10 км при отсутствии осадков обычно наблюдается дымка, при ухудшении видимости до 1 км и менее - туман. В сухую погоду видимость может ухудшаться дымом, пылью или мглою.
Явления - указаны атмосферные явления, наблюдавшиеся в срок или в последний час перед сроком; фигурными скобками обозначены явления, наблюдавшиеся между сроками (за 1-3 часа до срока); квадратными скобками обозначены град или гололедные отложения с указанием их диаметра в мм.
Облачность - указаны через наклонную черту общая и нижняя облачность в баллах и высота нижней границы облаков в метрах; квадратными скобками обозначены формы облаков: Ci - перистые, Cs - перисто-слоистые, Cc - перисто-кучевые, Ac - высококучевые, As - высокослоистые, Sc - слоисто-кучевые, Ns - слоисто-дождевые, Cu - кучевые, Cb - кучево-дождевые. Подробнее классификацию облаков см. в Атласе облаков (PDF).
T - Температура воздуха - температура, измеренная на высоте 2 м над землей.
Td - Температура точки росы - температура, при понижении до которой содержащийся в воздухе водяной пар достигнет насыщения.
f - Относительная влажность воздуха - влажноcть воздуха, измеренная на высоте 2 м над землей.
Te - Эффективная температура - температура, которую ощущает одетый по сезону человек в тени. Характеристика душности погоды. При расчете учитывается влияние влажности воздуха и скорости ветра на теплоощущения человека.
Tes - Эффективная температура на солнце - температура, которую ощущает человек, с поправкой на солнечный нагрев. Характеристика знойности погоды. Зависит от высоты солнца над горизонтом, облачности и скорости ветра. Ночью, в пасмурную погоду, а также при ветре 12 м/с и более поправка равна нулю.
P - Атмосферное давление - приведенное к уровню моря атмосферное давление.
Po - Атмосферное давление - измеренное на уровне метеостанции атмосферное давление.
Tmin - Минимальная температура - минимум температуры воздуха на высоте 2 м над землей.
Tmax - Максимальная температура - максимум температуры воздуха на высоте 2 м над землей.
R - Количество осадков - Количество выпавших осадков за период времени, мм. При наведении курсора мыши на число - период времени, за который выпало указанное количество осадков.
R24 - Количество осадков - Количество выпавших осадков за 24 часа, мм.
S - Снежный покров - Высота снежного покрова, см. При наведении курсора мыши на число - состояние снежного покрова и степень покрытия местности в баллах.